Simultaneous Nadir Overpasses (SNOs) Predictions

Prediction of SNOs between AQUA and NOAA-19 Satellite Orbit:

Table of predicted SNOs for the next 14.0 days since TLE Epoch: 1/13/2024
Index Date (AQUA) Time (AQUA) Lat,Lon (AQUA) SZA (AQUA ) Date (NOAA-19) Time (NOAA-19) Lat,Lon (NOAA-19) SZA (NOAA-19 ) Distance(km) Time Diff (sec)
1 01/14/2024 14:18:45 75.95, -40.10 97.31 01/14/2024 14:17:41 75.92, -40.09 97.29 3.12 64
2 01/14/2024 15:08:08 -75.98, 127.46 82.67 01/14/2024 15:08:45 -75.98, 127.37 82.67 2.38 37
3 01/16/2024 18:59:28 75.92,-110.18 96.88 01/16/2024 18:58:52 75.95,-110.20 96.92 3.41 36
4 01/16/2024 19:48:52 -76.00, 57.23 83.04 01/16/2024 19:49:56 -76.01, 57.25 83.04 1.55 64
5 01/18/2024 23:40:11 75.95, 179.60 96.48 01/18/2024 23:40:04 75.93, 179.49 96.47 3.25 7
6 01/21/2024 03:31:28 -75.92, -58.11 84.01 01/21/2024 03:30:23 -75.89, -58.16 84.02 3.14 65
7 01/21/2024 04:20:53 75.97, 109.38 96.05 01/21/2024 04:21:15 75.95, 109.32 96.03 2.72 22
8 01/23/2024 08:12:09 -75.94,-128.32 84.47 01/23/2024 08:11:33 -75.94,-128.23 84.47 2.40 36
9 01/23/2024 09:01:34 76.00, 39.16 95.58 01/23/2024 09:02:25 76.01, 39.29 95.58 3.53 51
10 01/25/2024 12:52:48 -75.92, 161.63 85.02 01/25/2024 12:52:44 -75.93, 161.51 85.00 3.65 4



Historial Predications of SNOs between AQUA and NOAA-19
